FW9176 Weather Reports


time (UTC)temp
F
wind
direction
speed
knots
gust
knots
rain 1hr
in
rain 24hr
in
rain mn
in
humidity
%
barometer
mb
20260906180114 79 64 0.9 2.6 0.00 0.00 0.00 56 1017.2
20260906174602 80 74 0.0 1.7 0.00 0.00 0.00 52 1017.4
20260906173119 79 0 0.9 2.6 0.00 0.00 0.00 52 1017.5
20260906171602 78 77 0.0 1.7 0.00 0.00 0.00 54 1017.6
20260906170127 79 62 0.0 1.7 0.00 0.00 0.00 56 1017.6
20260906164605 79 68 0.9 2.6 0.00 0.00 0.00 55 1017.6
20260906163111 78 0 0.0 3.5 0.00 0.00 0.00 58 1017.7
20260906161615 77 69 0.9 1.7 0.00 0.00 0.00 59 1017.6
20260906154557 76 75 0.9 3.5 0.00 0.00 0.00 64 1017.5
20260906153102 76 0 0.0 1.7 0.00 0.00 0.00 65 1017.5
20260906151614 75 0 0.0 1.7 0.00 0.00 0.00 67 1017.6
20260906150106 75 72 0.0 0.9 0.00 0.00 0.00 70 1017.4
20260906144604 75 0 0.0 0.0 0.00 0.00 0.00 71 1017.5
20260906143130 75 0 0.0 0.0 0.00 0.00 0.00 73 1017.3
20260906141557 74 0 0.0 0.0 0.00 0.00 0.00 75 1017.3
20260906140105 73 0 0.0 0.0 0.00 0.00 0.00 76 1017.2
20260906134613 73 0 0.0 0.0 0.00 0.00 0.00 77 1017.1
20260906133059 73 0 0.0 0.0 0.00 0.00 0.00 78 1017.1
20260906131606 72 0 0.0 0.0 0.00 0.00 0.00 78 1017.0
20260906130056 72 0 0.0 0.0 0.00 0.00 0.00 79 1017.0
20260906124606 72 0 0.0 0.9 0.00 0.00 0.00 80 1016.9
20260906123136 71 0 0.0 0.0 0.00 0.00 0.00 82 1016.7
20260906121554 71 0 0.0 0.0 0.00 0.00 0.00 83 1016.6
20260906120109 71 0 0.0 0.0 0.00 0.00 0.00 84 1016.2
20260906114610 71 0 0.0 0.0 0.00 0.00 0.00 84 1016.1
20260906113104 71 0 0.0 0.0 0.00 0.00 0.00 83 1015.8
20260906111601 71 0 0.0 0.0 0.00 0.00 0.00 84 1015.6
20260906110106 70 0 0.0 0.0 0.00 0.00 0.00 84 1015.7
20260906104600 70 0 0.0 0.0 0.00 0.00 0.00 84 1015.4
20260906103106 70 0 0.0 0.0 0.00 0.00 0.00 83 1015.2
20260906101602 71 0 0.0 0.0 0.00 0.00 0.00 82 1015.1
20260906100058 71 0 0.0 0.0 0.00 0.00 0.00 81 1014.9
20260906094609 71 0 0.0 0.0 0.00 0.00 0.00 81 1014.7
20260906093100 72 0 0.0 0.0 0.00 0.00 0.00 81 1014.7
20260906091606 72 0 0.0 0.0 0.00 0.00 0.00 81 1014.9
20260906090100 72 0 0.0 0.0 0.00 0.00 0.00 81 1014.7
20260906084602 72 0 0.0 0.0 0.00 0.00 0.00 80 1014.7
20260906083105 72 0 0.0 0.0 0.00 0.00 0.00 80 1014.6
20260906081603 72 0 0.0 0.0 0.00 0.00 0.00 80 1014.6
20260906074605 73 0 0.0 0.0 0.00 0.00 0.00 79 1015.0
20260906073059 73 0 0.0 0.0 0.00 0.00 0.00 79 1015.0
20260906071604 73 0 0.0 0.9 0.00 0.00 0.00 79 1014.9
20260906070101 73 0 0.0 0.9 0.00 0.00 0.00 81 1014.9
20260906064558 73 0 0.0 0.9 0.00 0.00 0.00 81 1014.6
20260906063104 73 0 0.0 0.9 0.00 0.00 0.00 81 1014.9
20260906061559 73 0 0.0 0.9 0.00 0.00 0.00 82 1014.9
20260906060104 73 0 0.0 0.9 0.00 0.00 0.00 82 1014.9
20260906054605 73 0 0.0 0.9 0.00 0.00 0.00 81 1014.9
20260906053108 73 0 0.0 0.9 0.00 0.00 0.00 81 1014.7
20260906051605 73 0 0.0 0.9 0.00 0.00 0.00 81 1014.4
20260906050108 73 0 0.0 0.9 0.00 0.00 0.00 81 1014.3
20260906044600 73 0 0.0 0.9 0.00 0.00 0.00 81 1014.3
20260906043107 73 50 0.0 0.9 0.00 0.00 0.00 81 1014.0
20260906041603 73 0 0.0 0.9 0.00 0.00 0.00 81 1013.9
20260906040110 73 0 0.0 1.7 0.00 0.00 0.00 81 1013.9
20260906034607 73 0 0.0 1.7 0.00 0.00 0.00 81 1013.8
20260906033112 73 72 0.0 1.7 0.00 0.00 0.00 80 1013.8
20260906031600 73 0 0.0 2.6 0.00 0.00 0.00 80 1014.0
20260906030100 73 0 0.0 2.6 0.00 0.00 0.00 80 1013.9
20260906024557 73 0 0.0 1.7 0.00 0.00 0.00 79 1013.8
20260906023102 73 58 0.0 2.6 0.00 0.00 0.00 79 1013.8
20260906021606 73 60 0.0 4.3 0.00 0.00 0.00 79 1013.7
20260906020109 73 0 0.9 1.7 0.00 0.00 0.00 79 1013.9
20260906014602 73 46 0.9 2.6 0.00 0.00 0.00 80 1014.0
20260906013110 73 0 0.0 0.9 0.00 0.00 0.00 80 1013.9
20260906011605 73 0 0.0 2.6 0.00 0.00 0.00 80 1013.9
20260906010100 73 0 0.0 3.5 0.00 0.00 0.00 81 1013.8
20260906004611 72 0 0.0 5.2 0.00 0.00 0.00 81 1013.6
20260906003107 72 68 0.9 4.3 0.00 0.00 0.00 80 1013.7
20260906001607 73 20 0.0 2.6 0.00 0.00 0.00 80 1013.7
20260906000109 73 250 0.0 1.7 0.00 0.00 0.00 80 1013.6
20260905234602 73 340 0.0 3.5 0.00 0.00 0.00 79 1013.5
20260905233100 74 62 0.0 4.3 0.00 0.00 0.00 79 1013.3
20260905231556 75 285 0.0 5.2 0.00 0.00 0.00 77 1013.0
20260905224558 77 0 0.0 2.6 0.00 0.00 0.00 75 1012.9
20260905223058 78 61 0.0 2.6 0.00 0.00 0.00 73 1012.9
20260905221605 79 63 0.9 2.6 0.00 0.00 0.00 72 1012.9
20260905214555 80 35 0.0 1.7 0.00 0.00 0.00 70 1012.9
20260905213108 79 65 0.0 1.7 0.00 0.00 0.00 70 1012.6
20260905211601 79 0 0.0 1.7 0.00 0.00 0.00 70 1012.4
20260905210123 79 0 0.0 1.7 0.00 0.00 0.00 72 1012.6
20260905204604 79 29 0.0 0.9 0.00 0.00 0.00 72 1013.0
20260905203101 79 0 0.0 2.6 0.00 0.00 0.00 71 1012.7
20260905201558 79 0 0.9 1.7 0.00 0.00 0.00 72 1012.8
20260905200107 79 46 0.0 2.6 0.00 0.00 0.00 72 1012.9
20260905194608 79 0 0.0 3.5 0.00 0.00 0.00 73 1012.9
20260905193102 79 48 0.0 3.5 0.00 0.00 0.00 72 1013.1
20260905191608 80 77 0.0 1.7 0.00 0.00 0.00 72 1013.1
20260905190100 80 0 0.0 2.6 0.00 0.00 0.00 72 1013.2
20260905184624 80 338 0.0 4.3 0.00 0.00 0.00 72 1013.0
20260905183109 81 274 0.0 3.5 0.00 0.00 0.00 71 1013.1
20260905181601 81 335 0.0 4.3 0.00 0.00 0.00 71 1013.1